Wind_Speed
10 13 16 12 11 9 6 5 4 4 3 2 1 5 6 6 5 5 5 5 5 6 8 7 3 6 6 7 6 4 4 9 10 11 12 11 7 5 7 8 12 12 10
9 13 15 12 11 9 6 4 3 3 4 5 9 7 9 9 7 3 3 3 5 4 3 4 5 7 8 6 5 7 7 8 9 10 10 8 3 3 2 5 2 9 7
11 13 18 15 13 9 5 4 2 3 3 5 9 4 6 8 6 3 1 3 2 3 4 3 3 4 5 8 8 8 9 8 8 7 6 3 1 1 2 4 3 8 5
12 13 16 18 14 10 6 4 2 2 3 4 6 8 9 10 6 7 6 6 9 5 6 6 6 5 3 1 3 4 5 4 5 4 4 3 3 3 2 3 5 7 4
13 13 15 16 14 9 6 5 2 1 2 3 8 9 9 8 8 9 6 8 8 8 8 8 8 7 6 5 3 3 2 2 2 3 3 3 3 4 4 5 4 7 10
13 13 15 16 13 9 9 5 3 1 2 3 7 11 9 7 5 4 2 3 5 6 7 7 7 6 5 4 3 1 0 1 0 1 2 3 3 4 5 6 7 10 11
15 15 14 16 12 11 10 8 5 1 1 4 9 13 9 6 3 6 3 3 5 4 4 5 5 5 4 3 3 3 4 6 5 5 5 5 6 7 7 8 9 10 10
13 15 15 15 14 13 10 9 5 2 3 5 9 11 11 8 5 8 7 2 5 4 4 5 5 6 6 6 6 5 5 7 8 8 8 7 8 9 9 8 10 11 12
13 13 13 14 14 13 12 10 5 3 3 5 7 9 10 11 7 6 6 3 3 3 3 4 5 6 6 7 8 9 11 11 12 13 13 12 12 12 11 11 12 14 16
13 14 12 12 12 13 13 10 6 4 5 4 4 5 8 10 10 8 7 6 6 3 1 2 4 5 7 10 12 13 14 13 12 13 11 10 11 14 13 12 14 16 17
14 14 14 13 12 13 13 11 8 6 6 4 4 4 6 8 9 9 8 6 4 2 2 3 5 8 10 12 13 13 13 13 12 12 12 12 12 12 12 14 15 16 16
15 16 16 15 13 13 13 12 9 7 8 6 4 4 5 8 9 8 6 5 3 3 5 6 8 11 11 13 14 15 15 15 15 16 16 16 15 15 16 15 14 15 17
10 13 16 16 14 12 13 13 11 9 9 7 6 7 6 7 7 6 4 4 3 5 6 9 9 12 15 16 18 17 17 19 20 21 21 19 17 16 14 12 11 11 13
10 10 11 14 16 13 12 14 11 10 9 7 7 9 7 6 6 5 4 5 2 4 8 10 12 15 17 17 19 20 21 22 22 22 21 20 17 13 6 5 8 11 11
14 11 13 13 15 16 15 15 13 11 10 8 9 10 8 7 5 5 5 2 4 6 10 13 14 17 19 19 21 21 22 21 19 17 14 13 10 10 10 11 11 8 4
16 16 16 16 17 18 17 16 13 13 12 10 10 10 8 7 5 5 5 5 7 9 12 13 16 19 21 21 20 19 17 16 14 11 9 8 7 8 9 10 10 10 11
18 19 19 20 20 21 21 17 17 15 13 11 9 10 10 8 8 8 6 7 8 9 12 16 19 21 20 18 16 15 13 13 12 9 7 7 8 9 11 12 13 14 15
19 21 23 24 22 22 24 21 18 16 14 11 12 10 12 9 8 7 8 7 6 9 14 18 19 19 18 15 11 11 11 11 10 8 5 5 7 9 10 12 14 15 16
24 25 25 25 23 20 25 23 19 18 16 15 14 15 12 9 9 9 7 5 7 11 14 16 17 16 15 12 11 11 11 9 8 9 8 8 9 10 13 14 15 17 19
24 24 25 24 23 21 25 25 22 20 19 18 17 17 14 9 7 8 6 4 6 10 13 14 15 16 17 17 14 13 6 5 5 8 10 14 15 16 17 19 20 23 24
21 21 25 26 25 24 28 29 24 22 21 22 22 19 15 11 10 9 4 3 7 11 14 16 17 17 18 19 18 12 7 2 7 7 7 18 14 16 17 22 25 27 27
21 23 25 27 25 26 29 31 26 23 24 25 24 20 16 14 13 8 3 5 9 14 16 17 18 19 20 20 20 13 8 6 3 19 11 19 11 19 19 24 24 25 26
26 24 25 25 26 28 30 33 25 23 25 27 24 21 19 17 12 7 3 6 10 13 16 19 19 18 17 18 19 14 7 4 25 5 20 10 26 26 30 30 29 31 27
26 25 26 23 24 28 31 31 24 24 26 26 24 23 22 18 12 7 5 7 10 14 17 19 20 19 18 16 17 16 14 13 8 12 12 27 29 35 35 32 36 29 31
28 28 28 23 24 27 28 26 25 24 26 23 28 26 25 19 13 7 5 7 10 14 17 19 19 18 18 18 18 17 15 16 15 18 24 33 38 36 34 41 29 35 31
30 30 27 25 24 25 31 27 26 21 24 28 29 29 24 18 12 7 6 8 11 14 17 19 19 18 18 18 18 17 18 17 19 20 20 30 29 26 43 28 37 31 31
Wind_Direction
168 163 160 166 167 155 151 139 106 74 59 2 164 168 188 203 221 224 230 247 256 280 298 300 218 163 108 125 149 202 271 285 280 291 298 311 307 293 264 234 243 262 271
171 165 156 160 169 172 172 147 111 66 35 60 113 145 161 171 180 182 236 264 288 300 314 323 191 185 180 162 189 203 226 260 284 295 303 334 355 15 14 148 264 266 259
163 172 159 167 180 191 195 160 113 60 45 82 144 154 123 108 145 139 31 29 40 26 7 33 154 200 211 223 234 237 249 266 285 292 303 335 317 350 157 180 226 265 228
163 174 158 173 184 188 196 175 139 54 35 77 133 174 100 117 96 116 112 50 47 46 59 68 78 61 84 185 244 266 277 282 308 322 328 331 302 293 257 226 221 275 285
160 176 166 176 187 198 196 187 173 72 67 105 119 127 118 104 106 103 72 40 32 51 64 70 76 75 76 82 79 75 41 7 13 23 11 354 318 292 282 272 205 260 263
172 175 176 189 186 192 176 180 173 65 97 128 131 129 127 134 135 154 41 15 18 34 49 54 59 63 61 56 54 55 3 293 58 343 326 319 307 291 277 266 248 239 255
177 176 176 187 186 192 187 181 179 157 136 126 142 139 135 135 155 177 198 339 353 17 30 42 40 35 24 14 356 341 327 316 306 299 293 292 292 288 277 269 265 269 256
187 182 181 183 184 185 194 186 179 176 138 130 148 151 150 152 173 187 177 236 319 339 8 15 14 19 14 7 357 339 323 315 310 303 295 284 279 274 274 277 284 289 289
188 195 189 182 186 185 192 188 192 182 152 132 146 162 170 173 178 153 165 206 269 298 334 11 23 15 2 336 325 319 311 307 305 302 296 288 280 275 275 290 296 295 296
193 197 199 190 189 193 199 199 200 192 175 157 152 164 183 191 188 185 187 202 232 250 295 18 3 321 318 312 320 316 309 310 309 310 310 302 292 284 283 273 271 268 273
202 200 205 205 197 199 202 204 206 186 188 188 184 182 189 193 189 192 202 203 221 236 263 290 308 315 314 316 319 320 319 319 320 317 317 312 307 302 297 286 277 271 272
221 214 211 214 215 212 207 206 210 201 202 215 213 203 197 188 186 184 195 202 216 249 276 294 310 317 320 317 317 313 313 314 313 312 309 307 303 298 296 296 293 286 278
243 236 228 225 226 226 224 214 216 212 209 218 216 202 182 176 182 187 192 205 241 280 297 309 312 313 316 317 317 315 316 312 310 308 305 303 301 299 302 306 300 289 278
238 250 247 239 235 234 230 228 225 219 215 222 210 190 187 182 178 179 209 222 252 301 301 304 304 309 313 316 309 309 307 304 303 302 301 299 301 301 280 252 260 270 283
244 254 257 254 244 237 235 227 222 217 215 219 199 196 200 201 208 216 203 216 271 300 305 307 309 309 309 308 305 307 307 306 306 305 301 302 302 285 274 267 275 292 255
262 263 267 262 254 240 235 230 220 213 213 213 204 206 209 209 216 219 247 257 280 299 303 308 309 309 308 309 310 309 309 309 311 310 306 303 292 282 280 282 286 276 277
264 272 268 265 263 241 232 224 216 209 212 211 211 208 202 214 240 238 239 264 288 300 311 314 314 312 309 310 310 307 307 305 302 299 299 296 292 288 288 286 285 284 283
260 269 267 262 258 238 224 223 221 207 216 217 209 200 212 224 232 236 249 266 285 312 318 316 314 312 314 319 319 312 307 301 284 276 291 310 306 299 300 298 293 291 291
255 262 258 257 247 230 217 221 219 216 215 213 207 207 212 223 235 227 241 255 306 325 327 326 325 325 334 342 341 324 314 294 269 262 274 298 308 316 312 307 303 296 297
257 255 250 246 234 221 213 210 214 207 213 210 203 202 208 208 220 206 218 280 324 340 343 343 345 343 345 348 352 345 345 309 271 261 282 295 293 301 314 313 312 312 308
266 261 254 239 230 219 209 204 208 210 209 197 196 194 198 195 200 196 229 310 341 348 354 357 352 346 344 350 354 15 359 20 291 284 306 313 311 304 316 319 315 314 313
268 265 250 233 225 213 211 207 200 205 197 195 191 185 188 190 190 200 239 326 341 354 357 353 351 350 352 355 4 5 357 351 149 305 335 310 322 313 316 316 319 320 318
261 260 236 228 220 211 208 200 190 194 191 187 184 183 180 189 192 202 268 321 345 351 349 350 351 351 355 355 1 11 352 326 318 196 317 318 320 323 327 328 328 326 324
249 241 230 224 218 215 210 192 205 202 198 197 196 185 189 187 196 213 270 325 339 344 348 349 350 348 349 353 353 350 344 328 320 314 311 318 322 324 328 329 329 327 322
238 231 223 219 218 216 206 196 205 206 199 197 187 191 188 189 198 222 279 316 331 341 345 348 346 344 344 345 343 340 337 332 325 315 311 317 318 325 325 326 324 326 323
227 219 216 217 214 208 194 201 208 204 194 189 191 188 187 191 203 231 277 307 327 338 343 344 342 341 339 338 336 336 336 333 325 321 308 315 314 323 320 321 323 322 324
Height
1512 1513 1515 1518 1519 1520 1521 1522 1523 1524 1524 1524 1524 1526 1528 1529 1530 1531 1532 1532 1533 1532 1531 1530 1531 1532 1531 1531 1533 1533 1533 1533 1533 1533 1533 1531 1529 1529 1528 1530 1532 1532 1532
1512 1514 1515 1518 1520 1520 1521 1523 1523 1524 1525 1525 1526 1527 1528 1529 1531 1532 1532 1532 1532 1532 1531 1530 1529 1531 1531 1532 1532 1532 1532 1532 1531 1532 1531 1530 1529 1528 1528 1528 1531 1531 1531
1512 1514 1516 1518 1519 1521 1522 1523 1523 1524 1524 1525 1527 1527 1528 1529 1532 1532 1533 1533 1532 1532 1531 1530 1529 1531 1531 1531 1532 1532 1531 1530 1530 1529 1529 1529 1529 1529 1528 1529 1529 1530 1529
1512 1515 1515 1517 1519 1520 1522 1524 1524 1524 1524 1525 1526 1528 1529 1530 1532 1532 1534 1534 1533 1532 1532 1531 1530 1530 1530 1530 1531 1531 1530 1529 1529 1528 1527 1528 1529 1529 1528 1528 1528 1528 1528
1513 1516 1517 1518 1520 1521 1522 1523 1524 1524 1525 1526 1526 1529 1531 1533 1533 1533 1534 1534 1535 1533 1533 1532 1531 1531 1531 1531 1531 1530 1530 1529 1528 1527 1527 1527 1527 1528 1527 1527 1526 1527 1527
1513 1516 1517 1519 1521 1520 1522 1523 1524 1525 1525 1526 1527 1529 1531 1533 1534 1534 1534 1535 1535 1535 1534 1533 1532 1532 1532 1532 1531 1530 1529 1528 1528 1526 1526 1525 1525 1526 1526 1525 1525 1524 1525
1513 1515 1517 1519 1520 1521 1522 1523 1525 1525 1526 1526 1528 1529 1532 1532 1533 1534 1534 1536 1536 1535 1535 1533 1533 1532 1532 1531 1531 1530 1529 1529 1527 1526 1525 1524 1524 1524 1523 1523 1522 1522 1522
1513 1514 1516 1519 1520 1522 1524 1523 1524 1525 1526 1527 1528 1530 1531 1532 1532 1533 1534 1536 1536 1536 1534 1533 1533 1533 1532 1532 1531 1530 1528 1528 1527 1526 1524 1523 1522 1522 1521 1521 1521 1520 1520
1512 1514 1515 1517 1520 1522 1523 1523 1524 1525 1527 1527 1529 1530 1531 1532 1532 1533 1534 1536 1536 1535 1535 1534 1534 1533 1532 1532 1531 1529 1528 1526 1526 1525 1523 1521 1520 1519 1519 1520 1519 1519 1518
1511 1513 1514 1516 1518 1521 1522 1523 1523 1525 1527 1527 1528 1530 1531 1532 1532 1533 1534 1535 1535 1534 1534 1534 1534 1532 1531 1531 1529 1527 1527 1524 1523 1523 1521 1519 1518 1518 1518 1517 1517 1516 1515
1509 1511 1513 1515 1517 1519 1520 1522 1523 1524 1526 1527 1528 1529 1530 1531 1532 1532 1533 1533 1534 1534 1534 1533 1532 1531 1530 1529 1527 1526 1525 1523 1521 1521 1520 1518 1517 1516 1515 1515 1514 1513 1512
1507 1510 1512 1514 1515 1517 1518 1520 1521 1523 1524 1526 1528 1528 1529 1530 1532 1532 1533 1533 1533 1533 1532 1532 1531 1530 1528 1527 1525 1524 1522 1521 1519 1519 1517 1516 1515 1514 1513 1512 1511 1510 1509
1506 1508 1510 1511 1513 1515 1516 1517 1519 1521 1523 1524 1526 1528 1529 1529 1531 1532 1532 1532 1532 1532 1532 1531 1529 1529 1526 1524 1523 1522 1519 1518 1516 1515 1514 1512 1511 1511 1510 1509 1508 1507 1506
1503 1505 1508 1509 1510 1512 1514 1515 1517 1520 1521 1523 1525 1527 1528 1529 1530 1530 1532 1531 1531 1530 1531 1529 1527 1527 1525 1521 1521 1518 1516 1514 1513 1511 1510 1508 1508 1508 1507 1506 1505 1504 1504
1500 1502 1505 1506 1507 1509 1511 1512 1514 1517 1519 1521 1523 1525 1527 1528 1529 1530 1530 1529 1530 1529 1528 1528 1525 1524 1522 1519 1518 1513 1511 1510 1508 1507 1506 1505 1505 1504 1504 1503 1502 1503 1501
1497 1499 1501 1502 1504 1505 1507 1510 1512 1514 1516 1519 1521 1524 1525 1527 1528 1528 1529 1529 1528 1527 1526 1525 1523 1521 1519 1515 1513 1509 1507 1506 1505 1504 1504 1503 1503 1503 1502 1501 1501 1499 1498
1493 1494 1496 1497 1498 1501 1504 1507 1509 1511 1514 1517 1520 1522 1523 1525 1526 1527 1527 1527 1526 1526 1524 1523 1520 1517 1515 1512 1510 1505 1504 1503 1502 1502 1501 1501 1501 1501 1500 1499 1498 1497 1495
1488 1489 1490 1491 1493 1495 1499 1502 1505 1509 1512 1515 1518 1519 1522 1523 1524 1525 1526 1525 1525 1524 1522 1521 1517 1515 1513 1509 1507 1503 1501 1500 1499 1500 1500 1500 1499 1498 1497 1496 1494 1493 1491
1483 1484 1485 1485 1487 1489 1494 1498 1503 1507 1509 1512 1514 1517 1519 1521 1523 1523 1525 1524 1524 1522 1521 1519 1515 1513 1510 1506 1504 1501 1497 1497 1497 1497 1498 1497 1497 1496 1495 1493 1490 1488 1486
1476 1477 1478 1479 1481 1483 1488 1494 1499 1503 1506 1509 1511 1514 1516 1518 1520 1521 1523 1522 1523 1521 1519 1517 1513 1510 1506 1503 1501 1498 1495 1495 1495 1496 1496 1495 1494 1493 1491 1489 1487 1484 1482
1470 1471 1472 1473 1475 1478 1481 1487 1494 1499 1503 1506 1508 1511 1514 1516 1517 1520 1520 1521 1521 1519 1517 1515 1512 1509 1504 1500 1498 1497 1493 1493 1493 1495 1494 1492 1490 1489 1488 1485 1483 1480 1477
1463 1464 1465 1467 1470 1473 1476 1480 1487 1494 1499 1502 1505 1508 1511 1514 1515 1517 1518 1519 1518 1516 1515 1513 1510 1507 1502 1499 1496 1493 1492 1493 1492 1492 1490 1489 1487 1487 1485 1482 1479 1476 1472
1456 1458 1459 1462 1465 1468 1472 1476 1482 1490 1495 1498 1502 1505 1509 1512 1513 1514 1516 1516 1516 1514 1513 1510 1507 1506 1502 1499 1496 1497 1494 1493 1489 1487 1487 1484 1483 1480 1478 1474 1472 1469 1465
1449 1452 1455 1458 1461 1464 1469 1474 1479 1485 1490 1494 1499 1503 1507 1509 1511 1512 1514 1514 1513 1512 1510 1507 1505 1503 1500 1498 1497 1495 1494 1493 1490 1482 1479 1477 1474 1472 1470 1467 1465 1461 1458
1442 1446 1449 1454 1457 1461 1466 1472 1475 1482 1486 1491 1496 1500 1504 1506 1509 1510 1511 1512 1511 1510 1508 1505 1503 1501 1498 1496 1495 1494 1492 1490 1488 1484 1473 1469 1466 1464 1461 1459 1457 1453 1450
1434 1440 1445 1449 1453 1459 1465 1469 1473 1478 1484 1487 1493 1498 1501 1504 1506 1508 1509 1509 1509 1507 1505 1503 1501 1498 1496 1494 1493 1491 1489 1487 1484 1480 1473 1466 1460 1456 1453 1452 1451 1447 1443